TimePST,TemperatureF,Dew PointF,Humidity,Sea Level PressureIn,VisibilityMPH,Wind Direction,Wind SpeedMPH,Gust SpeedMPH,PrecipitationIn,Events,Conditions,WindDirDegrees,DateUTC
12:04 AM,28.4,24.8,86,30.04,2.0,Calm,Calm,-,N/A,,Mist,0,2012-12-07 08:04:00
12:11 AM,28.4,24.8,86,30.04,10.0,NNW,4.6,-,N/A,,Unknown,330,2012-12-07 08:11:00
12:25 AM,28.4,24.8,86,30.04,2.5,Calm,Calm,-,N/A,,Partly Cloudy,0,2012-12-07 08:25:00
12:29 AM,28.4,24.8,86,30.04,1.0,Calm,Calm,-,N/A,,Mist,0,2012-12-07 08:29:00
12:36 AM,28.4,24.8,86,30.04,0.5,South,3.5,-,N/A,Fog,Light Freezing Fog,170,2012-12-07 08:36:00
12:53 AM,28.0,24.1,85,30.08,0.8,Calm,Calm,-,N/A,,Mist,0,2012-12-07 08:53:00
12:56 AM,28.4,24.8,86,30.03,1.2,Calm,Calm,-,N/A,,Mostly Cloudy,0,2012-12-07 08:56:00
1:00 AM,28.4,24.8,86,30.03,4.0,Calm,Calm,-,N/A,,Scattered Clouds,0,2012-12-07 09:00:00
1:53 AM,28.9,25.0,85,30.06,10.0,SW,4.6,-,N/A,,Clear,220,2012-12-07 09:53:00
2:49 AM,28.4,24.8,86,30.01,6.0,East,4.6,-,N/A,,Haze,80,2012-12-07 10:49:00
2:53 AM,28.9,25.0,85,30.05,6.0,ENE,4.6,-,N/A,,Partly Cloudy,60,2012-12-07 10:53:00
3:53 AM,30.9,27.0,85,30.03,10.0,ESE,4.6,-,N/A,,Overcast,110,2012-12-07 11:53:00
4:53 AM,33.1,28.9,85,30.02,10.0,NE,8.1,-,N/A,,Overcast,40,2012-12-07 12:53:00
5:53 AM,33.1,28.9,85,30.01,10.0,NE,3.5,-,N/A,,Overcast,50,2012-12-07 13:53:00
6:53 AM,32.0,28.9,88,29.99,6.0,Calm,Calm,-,0.00,,Overcast,0,2012-12-07 14:53:00
7:53 AM,34.0,30.0,85,29.97,9.0,Calm,Calm,-,0.00,,Overcast,0,2012-12-07 15:53:00
8:53 AM,35.1,30.0,82,29.95,9.0,Calm,Calm,-,0.00,,Overcast,0,2012-12-07 16:53:00
9:53 AM,35.1,30.9,85,29.95,6.0,WNW,3.5,-,N/A,,Overcast,290,2012-12-07 17:53:00
10:53 AM,37.0,33.1,86,29.92,10.0,WNW,8.1,-,0.00,,Overcast,300,2012-12-07 18:53:00
11:53 AM,39.0,34.0,82,29.91,7.0,NNW,12.7,19.6,0.01,Rain,Light Rain,330,2012-12-07 19:53:00
12:05 PM,39.2,33.8,81,29.87,10.0,WNW,16.1,-,0.00,Rain,Light Rain,300,2012-12-07 20:05:00
12:38 PM,39.2,33.8,81,29.85,10.0,West,9.2,-,0.00,,Mostly Cloudy,280,2012-12-07 20:38:00
12:53 PM,39.9,34.0,79,29.88,10.0,West,8.1,-,0.00,,Mostly Cloudy,280,2012-12-07 20:53:00
1:31 PM,39.2,33.8,81,29.84,7.0,NW,12.7,-,0.02,Rain,Rain,320,2012-12-07 21:31:00
1:53 PM,39.0,34.0,82,29.88,10.0,NNW,10.4,-,0.02,Rain,Light Rain,330,2012-12-07 21:53:00
2:53 PM,41.0,32.0,70,29.89,10.0,West,8.1,-,0.00,,Mostly Cloudy,260,2012-12-07 22:53:00
3:53 PM,39.0,28.0,65,29.91,10.0,WNW,13.8,-,N/A,,Scattered Clouds,300,2012-12-07 23:53:00
4:20 PM,35.6,30.2,81,29.91,1.8,NW,28.8,42.6,0.01,Snow,Light Snow,310,2012-12-08 00:20:00
4:25 PM,35.6,30.2,81,29.91,0.8,WNW,26.5,38.0,0.01,Snow,Light Snow,300,2012-12-08 00:25:00
4:36 PM,35.6,30.2,81,29.92,0.8,WNW,23.0,31.1,0.02,Snow,Light Snow,290,2012-12-08 00:36:00
4:39 PM,35.6,30.2,81,29.92,1.2,West,20.7,28.8,0.02,Snow,Light Snow,280,2012-12-08 00:39:00
4:47 PM,35.6,28.4,75,29.92,3.0,West,23.0,29.9,0.03,Snow,Light Snow,280,2012-12-08 00:47:00
4:53 PM,35.1,28.9,78,29.96,9.0,West,24.2,31.1,0.03,,Overcast,280,2012-12-08 00:53:00
5:05 PM,35.6,28.4,75,29.92,10.0,West,24.2,33.4,N/A,,Overcast,280,2012-12-08 01:05:00
5:53 PM,36.0,26.1,67,29.97,10.0,WNW,16.1,-,N/A,,Overcast,290,2012-12-08 01:53:00
6:53 PM,36.0,26.1,67,29.99,10.0,WNW,12.7,-,N/A,,Overcast,300,2012-12-08 02:53:00
7:53 PM,36.0,25.0,64,30.02,10.0,WNW,20.7,27.6,N/A,,Overcast,290,2012-12-08 03:53:00
8:53 PM,34.0,25.0,70,30.04,10.0,WNW,8.1,-,N/A,,Clear,300,2012-12-08 04:53:00
9:53 PM,34.0,27.0,75,30.06,10.0,NW,15.0,-,N/A,,Overcast,320,2012-12-08 05:53:00
10:53 PM,34.0,27.0,75,30.06,10.0,NW,11.5,-,N/A,,Overcast,310,2012-12-08 06:53:00
11:53 PM,32.0,26.1,79,30.08,10.0,NNW,3.5,-,N/A,,Mostly Cloudy,340,2012-12-08 07:53:00